This is the latest recevied weather packets stored in our database for station/object KC3QJO. If no packets are shown the sender has not sent any weather packets the latest 10 day(s).
| Time | Temp. | Humidity | Pressure | Rain* | Wind** | Luminosity | Snow |
|---|---|---|---|---|---|---|---|
| 1777741852 | 15° C | 34% | 1010.8 hPa | 0 mm | - | 271 W/m² | - |
| 1777741551 | 15° C | 44% | 1010.9 hPa | 0 mm | - | 1020 W/m² | - |
| 1777739460 | 12.78° C | 44% | 1011.5 hPa | 0 mm | - | 248 W/m² | - |
| 1777738251 | 12.78° C | 44% | 1011.4 hPa | 0 mm | - | 538 W/m² | - |
| 1777735857 | 12.22° C | 49% | 1011.7 hPa | 0 mm | - | 236 W/m² | - |
| 1777734953 | 11.67° C | 52% | 1011.7 hPa | 0 mm | - | 726 W/m² | - |
| 1777733451 | 11.11° C | 55% | 1011.7 hPa | 0 mm | - | 316 W/m² | - |
| 1777731652 | 10° C | 58% | 1011.9 hPa | 0 mm | - | 160 W/m² | - |
| 1777731050 | 10° C | 57% | 1012 hPa | 0 mm | - | 174 W/m² | - |
| 1777730455 | 9.44° C | 60% | 1011.9 hPa | 0 mm | - | 364 W/m² | - |
| 1777726855 | 8.33° C | 69% | 1011.9 hPa | 0 mm | - | 555 W/m² | - |
| 1777725655 | 7.22° C | 72% | 1011.9 hPa | 0 mm | - | 176 W/m² | - |
| 1777725351 | 7.22° C | 74% | 1011.6 hPa | 0 mm | - | 188 W/m² | - |
| 1777723262 | 6.11° C | 79% | 1011.5 hPa | 0 mm | - | 169 W/m² | - |
| 1777721453 | 6.11° C | 84% | 1011.6 hPa | 0 mm | - | 109 W/m² | - |
| 1777721154 | 6.11° C | 84% | 1011.6 hPa | 0 mm | - | 113 W/m² | - |
| 1777720252 | 6.67° C | 86% | 1011.4 hPa | 0.25 mm | - | 84 W/m² | - |
| 1777718452 | 6.67° C | 90% | 1011 hPa | 0.25 mm | - | 33 W/m² | - |
| 1777718153 | 6.67° C | 90% | 1011.2 hPa | 0.25 mm | - | 28 W/m² | - |
| 1777717863 | 6.67° C | 90% | 1011.1 hPa | 0.25 mm | - | 28 W/m² | - |
| 1777717551 | 6.67° C | 90% | 1011.1 hPa | 0.25 mm | - | 18 W/m² | - |
| 1777716652 | 6.67° C | 90% | 1010.8 hPa | 0 mm | - | 0 W/m² | - |
| 1777716352 | 6.67° C | 90% | 1010.7 hPa | 0 mm | - | 0 W/m² | - |
| 1777715752 | 6.67° C | 90% | 1010.7 hPa | 0 mm | - | 0 W/m² | - |
| 1777715452 | 6.67° C | 89% | 1010.4 hPa | 0 mm | - | 0 W/m² | - |
* Rain latest hour (hover to see other rain measurements)
** Current wind speed in m/s (hover to see current wind gust speed)